| time (UTC) | temp F | wind direction | speed MPH | gust MPH | rain 1hr in | rain 24hr in | rain mn in | humidity % | barometer mb |
| 20260903151521 | 73 | 247 | 0.0 | 3.0 | 0.00 | 0.17 | 0.00 | 93 | 1011.1 |
| 20260903150022 | 73 | 359 | 1.0 | 3.0 | 0.00 | 0.17 | 0.00 | 93 | 1010.9 |
| 20260903144504 | 72 | 214 | 0.0 | 1.0 | 0.00 | 0.17 | 0.00 | 93 | 1010.8 |
| 20260903143001 | 72 | 214 | 0.0 | 1.0 | 0.00 | 0.17 | 0.00 | 93 | 1011.0 |
| 20260903141600 | 71 | 206 | 0.0 | 1.0 | 0.00 | 0.17 | 0.00 | 93 | 1011.0 |
| 20260903140042 | 71 | 191 | 0.0 | 2.0 | 0.00 | 0.17 | 0.00 | 94 | 1011.0 |
| 20260903134540 | 71 | 176 | 0.0 | 1.0 | 0.00 | 0.17 | 0.00 | 94 | 1011.1 |
| 20260903133023 | 71 | 169 | 0.0 | 0.0 | 0.00 | 0.17 | 0.00 | 94 | 1011.1 |
| 20260903131523 | 71 | 166 | 0.0 | 0.0 | 0.00 | 0.17 | 0.00 | 94 | 1011.2 |
| 20260903130003 | 70 | 166 | 0.0 | 0.0 | 0.00 | 0.17 | 0.00 | 94 | 1011.3 |
| 20260903124501 | 69 | 167 | 0.0 | 0.0 | 0.00 | 0.17 | 0.00 | 94 | 1011.5 |
| 20260903123043 | 68 | 359 | 0.0 | 0.0 | 0.00 | 0.17 | 0.00 | 94 | 1011.4 |
| 20260903121542 | 67 | 167 | 0.0 | 0.0 | 0.00 | 0.17 | 0.00 | 94 | 1011.3 |
| 20260903120025 | 67 | 359 | 0.0 | 0.0 | 0.00 | 0.17 | 0.00 | 94 | 1011.3 |
| 20260903114521 | 67 | 167 | 0.0 | 0.0 | 0.00 | 0.17 | 0.00 | 94 | 1011.1 |
| 20260903113004 | 66 | 166 | 0.0 | 0.0 | 0.00 | 0.17 | 0.00 | 94 | 1010.9 |
| 20260903111504 | 66 | 166 | 0.0 | 0.0 | 0.00 | 0.17 | 0.00 | 93 | 1010.9 |
| 20260903110052 | 66 | 167 | 0.0 | 0.0 | 0.00 | 0.17 | 0.00 | 93 | 1010.7 |
| 20260903104611 | 66 | 359 | 0.0 | 0.0 | 0.00 | 0.17 | 0.00 | 93 | 1010.7 |
| 20260903103059 | 66 | 359 | 0.0 | 0.0 | 0.00 | 0.17 | 0.00 | 93 | 1010.6 |
| 20260903101552 | 67 | 167 | 0.0 | 0.0 | 0.00 | 0.17 | 0.00 | 94 | 1010.6 |
| 20260903100048 | 67 | 166 | 0.0 | 0.0 | 0.00 | 0.17 | 0.00 | 93 | 1010.5 |
| 20260903094549 | 67 | 168 | 0.0 | 0.0 | 0.00 | 0.17 | 0.00 | 93 | 1010.4 |
| 20260903093051 | 67 | 167 | 0.0 | 0.0 | 0.00 | 0.17 | 0.00 | 93 | 1010.1 |
| 20260903091550 | 67 | 167 | 0.0 | 0.0 | 0.00 | 0.17 | 0.00 | 93 | 1010.1 |
| 20260903090031 | 67 | 359 | 0.0 | 0.0 | 0.00 | 0.17 | 0.00 | 93 | 1009.9 |
| 20260903084540 | 68 | 167 | 0.0 | 0.0 | 0.00 | 0.17 | 0.00 | 93 | 1009.8 |
| 20260903083006 | 68 | 165 | 0.0 | 0.0 | 0.00 | 0.17 | 0.00 | 93 | 1009.4 |
| 20260903081506 | 68 | 168 | 0.0 | 0.0 | 0.00 | 0.17 | 0.00 | 93 | 1009.4 |
| 20260903080047 | 68 | 167 | 0.0 | 0.0 | 0.00 | 0.17 | 0.00 | 93 | 1009.6 |
| 20260903074553 | 68 | 359 | 0.0 | 0.0 | 0.00 | 0.17 | 0.00 | 93 | 1009.6 |
| 20260903073031 | 68 | 166 | 0.0 | 0.0 | 0.00 | 0.17 | 0.00 | 93 | 1009.7 |
| 20260903071531 | 68 | 167 | 0.0 | 0.0 | 0.00 | 0.17 | 0.00 | 93 | 1009.5 |
| 20260903070018 | 68 | 166 | 0.0 | 0.0 | 0.00 | 0.17 | 0.00 | 93 | 1009.3 |
| 20260903064508 | 68 | 167 | 0.0 | 0.0 | 0.00 | 0.17 | 0.00 | 93 | 1009.4 |
| 20260903063052 | 69 | 167 | 0.0 | 0.0 | 0.00 | 0.17 | 0.00 | 93 | 1009.6 |
| 20260903061548 | 69 | 168 | 0.0 | 0.0 | 0.00 | 0.17 | 0.00 | 93 | 1009.8 |
| 20260903060030 | 69 | 167 | 0.0 | 0.0 | 0.00 | 0.17 | 0.00 | 93 | 1010.0 |
| 20260903054529 | 69 | 167 | 0.0 | 0.0 | 0.00 | 0.17 | 0.00 | 93 | 1010.3 |
| 20260903053009 | 69 | 165 | 0.0 | 0.0 | 0.00 | 0.17 | 0.00 | 93 | 1010.1 |
| 20260903051509 | 69 | 167 | 0.0 | 0.0 | 0.00 | 0.17 | 0.00 | 93 | 1010.2 |
| 20260903050051 | 69 | 168 | 0.0 | 0.0 | 0.00 | 0.17 | 0.00 | 93 | 1010.0 |
| 20260903044551 | 69 | 164 | 0.0 | 0.0 | 0.00 | 0.17 | 0.00 | 93 | 1009.8 |
| 20260903043032 | 69 | 160 | 1.0 | 4.0 | 0.00 | 0.17 | 0.00 | 93 | 1009.7 |
| 20260903041535 | 69 | 156 | 0.0 | 0.0 | 0.01 | 0.17 | 0.00 | 93 | 1009.7 |
| 20260903040010 | 69 | 154 | 0.0 | 0.0 | 0.01 | 0.17 | 0.00 | 93 | 1009.3 |
| 20260903034509 | 69 | 151 | 0.0 | 0.0 | 0.01 | 0.17 | 0.17 | 93 | 1008.9 |
| 20260903033052 | 70 | 150 | 0.0 | 0.0 | 0.01 | 0.17 | 0.17 | 93 | 1009.3 |
| 20260903031551 | 70 | 150 | 0.0 | 0.0 | 0.00 | 0.16 | 0.16 | 93 | 1009.0 |
| 20260903030031 | 70 | 154 | 0.0 | 0.0 | 0.08 | 0.16 | 0.16 | 92 | 1008.4 |
| 20260903024529 | 70 | 152 | 0.0 | 0.0 | 0.08 | 0.16 | 0.16 | 93 | 1009.1 |
| 20260903023019 | 71 | 148 | 0.0 | 0.0 | 0.09 | 0.16 | 0.16 | 92 | 1009.4 |
| 20260903021517 | 70 | 149 | 0.0 | 0.0 | 0.09 | 0.16 | 0.16 | 92 | 1009.4 |
| 20260903020104 | 71 | 359 | 0.0 | 3.0 | 0.06 | 0.08 | 0.08 | 92 | 1010.1 |
| 20260903014552 | 71 | 66 | 0.0 | 1.0 | 0.06 | 0.08 | 0.08 | 92 | 1009.6 |
| 20260903011549 | 72 | 4 | 0.0 | 0.0 | 0.06 | 0.07 | 0.07 | 91 | 1010.2 |
| 20260903010048 | 72 | 4 | 0.0 | 0.0 | 0.01 | 0.02 | 0.02 | 90 | 1009.7 |
| 20260903004548 | 72 | 4 | 0.0 | 0.0 | 0.01 | 0.02 | 0.02 | 90 | 1009.1 |
| 20260903003046 | 72 | 4 | 0.0 | 0.0 | 0.02 | 0.02 | 0.02 | 90 | 1009.3 |
| 20260903001533 | 73 | 4 | 0.0 | 0.0 | 0.01 | 0.01 | 0.01 | 89 | 1008.8 |
| 20260903000031 | 73 | 8 | 0.0 | 0.0 | 0.01 | 0.01 | 0.01 | 88 | 1008.5 |
| 20260902234509 | 73 | 226 | 0.0 | 0.0 | 0.01 | 0.01 | 0.01 | 88 | 1009.4 |
| 20260902233011 | 74 | 9 | 0.0 | 0.0 | 0.00 | 0.00 | 0.00 | 86 | 1009.0 |
| 20260902231554 | 74 | 27 | 0.0 | 0.0 | 0.00 | 0.00 | 0.00 | 85 | 1009.3 |
| 20260902230051 | 74 | 16 | 1.0 | 9.0 | 0.00 | 0.00 | 0.00 | 82 | 1009.8 |
| 20260902224540 | 76 | 16 | 2.0 | 5.0 | 0.00 | 0.00 | 0.00 | 79 | 1009.8 |
| 20260902223039 | 76 | 25 | 0.0 | 4.0 | 0.00 | 0.00 | 0.00 | 79 | 1009.1 |
| 20260902221556 | 77 | 25 | 1.0 | 5.0 | 0.00 | 0.00 | 0.00 | 78 | 1008.8 |
| 20260902220039 | 78 | 58 | 0.0 | 2.0 | 0.00 | 0.00 | 0.00 | 80 | 1008.7 |
| 20260902214537 | 75 | 47 | 2.0 | 4.0 | 0.00 | 0.00 | 0.00 | 83 | 1008.9 |
| 20260902213037 | 73 | 10 | 0.0 | 0.0 | 0.00 | 0.00 | 0.00 | 85 | 1008.8 |
| 20260902211535 | 73 | 354 | 0.0 | 0.0 | 0.00 | 0.00 | 0.00 | 82 | 1008.8 |
| 20260902210033 | 81 | 197 | 0.0 | 23.0 | 0.00 | 0.00 | 0.00 | 66 | 1009.0 |
| 20260902204515 | 89 | 185 | 0.0 | 2.0 | 0.00 | 0.00 | 0.00 | 70 | 1007.9 |
| 20260902203016 | 90 | 185 | 2.0 | 5.0 | 0.00 | 0.00 | 0.00 | 69 | 1007.8 |
| 20260902201610 | 90 | 188 | 0.0 | 3.0 | 0.00 | 0.00 | 0.00 | 72 | 1008.3 |
| 20260902200051 | 89 | 177 | 1.0 | 4.0 | 0.00 | 0.00 | 0.00 | 72 | 1008.3 |
| 20260902194556 | 88 | 175 | 0.0 | 4.0 | 0.00 | 0.00 | 0.00 | 72 | 1008.5 |
| 20260902193027 | 88 | 347 | 1.0 | 4.0 | 0.00 | 0.00 | 0.00 | 73 | 1008.8 |
| 20260902191526 | 86 | 343 | 0.0 | 3.0 | 0.00 | 0.00 | 0.00 | 76 | 1009.0 |
| 20260902190006 | 85 | 343 | 2.0 | 4.0 | 0.00 | 0.00 | 0.00 | 78 | 1009.0 |
| 20260902184506 | 86 | 28 | 1.0 | 5.0 | 0.00 | 0.00 | 0.00 | 77 | 1009.2 |
| 20260902183112 | 87 | 201 | 0.0 | 4.0 | 0.00 | 0.00 | 0.00 | 76 | 1009.1 |
| 20260902181545 | 87 | 68 | 0.0 | 3.0 | 0.00 | 0.00 | 0.00 | 77 | 1008.9 |
| 20260902180025 | 85 | 30 | 0.0 | 1.0 | 0.00 | 0.00 | 0.00 | 79 | 1009.1 |
| 20260902174522 | 84 | 30 | 0.0 | 5.0 | 0.00 | 0.31 | 0.00 | 77 | 1009.6 |
| 20260902173005 | 84 | 30 | 2.0 | 4.0 | 0.00 | 0.31 | 0.00 | 78 | 1010.1 |
| 20260902171504 | 83 | 30 | 2.0 | 5.0 | 0.00 | 0.31 | 0.00 | 78 | 1010.5 |
| 20260902170052 | 85 | 299 | 0.0 | 3.0 | 0.00 | 0.31 | 0.00 | 79 | 1010.7 |
| 20260902164603 | 85 | 299 | 0.0 | 8.0 | 0.00 | 0.31 | 0.00 | 78 | 1010.8 |
| 20260902163051 | 85 | 176 | 0.0 | 3.0 | 0.00 | 0.31 | 0.00 | 79 | 1010.9 |
| 20260902161550 | 85 | 176 | 1.0 | 4.0 | 0.00 | 0.31 | 0.00 | 78 | 1010.9 |
| 20260902160054 | 86 | 191 | 0.0 | 3.0 | 0.00 | 0.31 | 0.00 | 77 | 1010.9 |
| 20260902154553 | 85 | 203 | 0.0 | 3.0 | 0.00 | 0.31 | 0.00 | 77 | 1010.8 |
| 20260902153044 | 84 | 203 | 0.0 | 3.0 | 0.00 | 0.31 | 0.00 | 80 | 1010.7 |